User: anonymous   Login
Location: Brainerd
(46.3580°N, 94.2010°W)
Time: 11:00:18
(UTC-05:00)
Language:

CZ-4C R/B - Orbit

View from above orbital plane
View from above orbital plane
View from above satellite
View from above satellite

Ground track
Ground track

The orbit data is extracted from the following two-line orbital elements,

1 32290U 07055B   15115.20066331  .00009403  00000-0  31865-3 0  9999
2 32290 097.5430 197.7674 0079709 036.2371 035.8522 15.27715470411810
Epoch (UTC): 25 April 2015 04:48:57
Eccentricity: 0.0079709
inclination: 97.5430°
perigee height: 428 km
apogee height: 537 km
right ascension of ascending node: 197.7674°
argument of perigee: 36.2371°
revolutions per day: 15.27715470
mean anomaly at epoch: 35.8522°
orbit number at epoch: 41181

The dashed part of the orbit path shows where the satellite is in the earth's shadow,  

DLR